{"data":{"norad_id":57446,"epoch":"2026-09-20T22:39:44.538336Z","epoch_age_seconds":89261,"freshness":"FRESH","line1":"1 57446U 23105S   26263.94426549 -.00000558  00000+0 -10748-4 0  9992","line2":"2 57446  43.0015 226.1080 0000837 273.3009  86.7746 15.27574420175572","mean_motion":15.2757442,"eccentricity":8.37e-5,"inclination_deg":43.0015,"raan_deg":226.108,"arg_perigee_deg":273.3009,"mean_anomaly_deg":86.7746,"bstar":-1.0748e-5,"rev_number":17557,"period_min":94.267093055931,"perigee_km":482.49152194316,"apogee_km":483.64008729266,"semimajor_km":6861.2028046179,"source":"CELESTRAK","updated_at":"2026-09-21T09:00:33.627548Z"}}